Location: ??????
(35.9338°N, 43.9662°E)
Time: 20:12:33
(UTC+00:00)

Daily predictions for brighter satellites

Satellite Brightness Start Highest point End
(mag) Time Altitude Azimuth Time Altitude Azimuth Time Altitude Azimuth
Helios 1A Rocket 3.1 16:19:52 10° SSE 16:23:53 55° ENE 16:27:56 10° N
Meteor 2-15 4.4 16:20:23 10° S 16:26:24 76° E 16:32:28 10° N
ERS-2 2.0 16:23:28 10° NNE 16:27:05 67° ESE 16:30:41 10° S
Cosmos 921 Rocket 3.0 16:24:38 10° N 16:28:51 62° ENE 16:33:00 10° SSE
Cosmos 1842 Rocket 3.6 16:24:39 10° S 16:29:05 72° E 16:33:35 10° N
Cosmos 1408 Rocket 3.7 16:25:25 10° N 16:29:46 57° E 16:34:07 10° SSE
SL-08 RB Rocket 4.3 16:29:26 10° S 16:33:56 61° W 16:38:26 10° NNW
Cosmos 2208 Rocket 4.3 16:28:48 10° N 16:34:08 54° ENE 16:39:27 10° SSE
Cosmos 841 Rocket 3.6 16:29:27 10° NNW 16:34:38 82° WSW 16:39:44 10° SSE
OBJECT-B 1.6 16:31:52 10° SE 16:34:48 33° ENE 16:37:45 10° N
H-2A R/B 4.1 16:32:03 10° SSW 16:36:09 27° W 16:40:17 10° NW
USA 267 3.8 16:31:05 10° SSE 16:37:28 55° SW 16:43:55 10° NW
GPS 2-04 Rocket1 4.0 16:35:01 10° SSW 16:38:16 23° SSE 16:41:22 10° ESE
BREEZE-M R/B 3.3 16:35:11 10° WSW 16:38:39 45° NW 16:41:05 10° NE
CZ-4 R/B 3.9 16:37:44 10° SSW 16:41:02 23° W 16:44:18 10° NW
DELTA 2 R/B (1) 4.0 16:39:18 10° WNW 16:44:49 60° N 16:50:18 10° E
Cosmos 1242 Rocket 4.3 16:44:44 13° ESE 16:46:02 15° E 16:48:09 10° NE
Resurs 1-3 4.1 16:56:53 15° SE 17:00:14 42° ENE 17:04:23 10° N
Cosmos 1862 3.7 16:57:31 10° NNW 17:01:30 65° W 17:05:28 10° S
Cosmos 1743 Rocket 3.5 16:58:00 10° N 17:02:20 69° E 17:06:28 11° SSE
FALCON 9 DEB 3.7 17:00:46 10° NNW 17:03:39 37° NE 17:05:08 22° E
Cosmos 1933 4.0 17:01:56 16° SSE 17:04:36 33° E 17:08:15 10° NNE
S3M 4.2 16:58:25 10° SSE 17:04:36 55° E 17:10:46 10° NNE
BREEZE-M (TANK) 4.3 16:51:24 10° NW 17:05:43 56° SW 17:08:54 15° SSE
Cosmos 2221 4.1 17:02:44 10° SSW 17:06:43 38° W 17:10:46 10° N
Cosmos 1437 Rocket 2.6 17:04:22 10° S 17:08:11 81° E 17:12:06 10° N
USA 290 4.2 17:06:50 10° NNE 17:08:49 15° ENE 17:09:16 15° ENE
Ariane Rocket 3.0 17:04:47 14° SSE 17:09:06 63° ENE 17:14:07 10° N
Cosmos 1500 Rocket 3.5 17:09:34 10° N 17:13:58 84° W 17:18:03 12° S
TIMED 4.4 17:10:37 10° NNW 17:15:00 79° ENE 17:17:53 21° SSE
X-37B 3.3 17:14:46 10° NW 17:16:52 16° N 17:18:58 10° NE
MOS 1 4.2 17:15:35 13° SSE 17:20:38 85° ENE 17:26:20 10° NNW
Cosmos 1553 Rocket 4.2 17:16:40 10° SSW 17:22:43 70° W 17:28:54 10° N
Cosmos 1782 3.6 17:25:16 30° ESE 17:25:42 31° E 17:29:14 10° NNE
Cosmos 2278 Rocket 3.4 17:26:38 21° E 17:26:38 21° E 17:30:34 10° NE
Cosmos 1354 Rocket 3.9 17:22:34 10° S 17:27:43 63° ESE 17:32:53 10° NNE
NOSS 3-3 (A) 3.8 17:22:39 10° SSW 17:28:03 57° ESE 17:34:04 10° NE
NOSS 3-3 (C) 3.8 17:22:45 10° SSW 17:28:10 57° ESE 17:34:10 10° NE
SJ-6B 4.4 17:31:41 10° SSW 17:35:08 32° W 17:38:41 10° NNW
Cosmos 1844 Rocket 3.8 17:30:52 10° SW 17:36:09 44° WNW 17:41:30 10° N
USA 186 4.4 17:35:25 10° WSW 17:36:18 11° W 17:37:10 10° WNW
Resurs 01 Rocket 1.6 17:37:57 36° SSE 17:39:41 69° ENE 17:44:06 10° N
SPOT 3 Rocket 3.6 17:37:26 32° SE 17:39:46 62° ENE 17:44:51 10° N
ASTRO E2 4.1 17:37:52 10° WSW 17:41:06 24° SSW 17:41:13 24° SSW
Meteor 1-25 Rocket 4.3 17:36:19 10° N 17:42:09 66° E 17:44:55 32° SSE
Sich 1 2.9 17:37:51 10° N 17:42:12 78° E 17:43:46 39° SSE
Cosmos 1602 4.3 17:40:04 10° N 17:43:41 39° E 17:43:41 39° E
FALCON 9 DEB 3.6 17:45:57 10° WNW 17:48:39 42° WSW 17:48:39 42° WSW
CZ-4C R/B 4.2 17:43:00 10° NNW 17:49:14 28° NE 17:53:26 19° E
OAO 1 4.4 17:44:09 10° W 17:49:36 76° S 17:51:34 40° ESE
FALCON 9 DEB 4.2 17:51:59 10° WNW 17:54:23 32° WSW 17:54:23 32° WSW
Cosmos 1151 Rocket 2.9 17:56:16 50° S 17:57:21 82° E 18:01:44 10° N
SL-4 R/B 2.4 17:58:17 10° NW 18:02:45 64° SW 18:03:26 56° S
ATLAS 5 CENTAUR R/B 2.7 17:57:45 10° NNW 18:03:33 57° ENE 18:05:37 41° ESE
FALCON 9 DEB 4.5 18:02:14 10° WNW 18:04:16 29° W 18:04:16 29° W
Cosmos 1812 4.2 18:06:47 27° NE 18:06:47 27° NE 18:08:53 10° NNE
Cosmos 2084 3.9 18:08:38 10° SW 18:12:40 56° NW 18:16:48 10° NNE
Cosmos 783 Rocket 4.5 18:07:33 10° N 18:12:44 62° ENE 18:13:17 58° ESE
Cosmos 1833 Rocket 3.7 18:10:34 10° N 18:15:30 30° ENE 18:16:03 29° ENE
Spot 2 Rocket 3.5 18:16:35 60° E 18:16:56 62° ENE 18:21:55 10° N
GPS 2-04 Rocket1 4.1 18:13:21 10° WSW 18:15:33 30° WSW 18:15:33 30° WSW
Cosmos 773 Rocket 4.2 18:13:13 10° N 18:18:26 54° ENE 18:18:42 53° E
Cosmos 1515 Rocket 4.1 18:19:49 48° NE 18:19:49 48° NE 18:23:16 10° NNE
SPOT 5 3.5 18:22:43 43° ENE 18:22:43 43° ENE 18:27:27 10° N
Terra 3.0 18:27:48 30° NE 18:27:48 30° NE 18:31:15 10° N
ARIANE 5 R/B 2.8 18:28:40 63° NNE 18:28:40 63° NNE 18:32:24 10° N
Meteor 1-14 Rocket 4.1 18:23:10 10° N 18:29:02 79° E 18:29:41 69° SE
ERS-1 Rocket 3.3 18:30:42 52° ENE 18:30:42 52° ENE 18:35:16 10° N
DELTA 2 R/B (1) 3.4 18:25:53 10° WNW 18:31:28 80° SSW 18:31:37 79° S
Cosmos 1633 Rocket 3.5 18:29:19 10° NNW 18:33:36 56° W 18:33:36 56° W
Cosmos 1709 Rocket 4.4 18:32:37 10° NNW 18:38:34 55° W 18:40:34 39° SW
Cosmos 2184 Rocket 4.2 18:32:45 10° N 18:38:44 50° E 18:38:44 50° E
Cosmos 1470 Rocket 4.1 18:39:20 10° N 18:43:01 59° NNW 18:43:01 59° NNW
CARTOSAT-1 4.2 18:46:29 53° NW 18:46:29 53° NW 18:49:53 10° NNW
Cosmos 2074 Rocket 4.1 18:39:32 10° N 18:45:46 60° E 18:45:49 60° E
Nadezhda 1 Rocket 4.4 18:46:55 49° ENE 18:46:55 49° ENE 18:52:22 10° NNE
Meteor 2-6 Rocket 4.1 18:49:25 73° WSW 18:49:37 74° W 18:55:06 10° N
Cosmos 2082 Rocket 3.4 18:45:54 10° N 18:50:26 29° NE 18:50:26 29° NE
COSMOS 2406 3.4 18:45:18 10° NNW 18:50:34 59° NE 18:50:34 59° NE
X-37B 3.7 18:51:10 10° NW 18:51:59 16° NW 18:51:59 16° NW
Milstar 3 3.6 18:45:53 10° WSW 18:58:32 52° S 18:58:43 52° S
Cosmos 2278 Rocket 3.1 19:08:22 35° WSW 19:10:05 45° WNW 19:15:30 10° N
SJ 16-02 2.9 19:15:15 34° NNW 19:15:15 34° NNW 19:18:12 10° N
NOSS 3-4 (A) 4.4 19:08:17 10° NNW 19:15:10 47° NE 19:16:07 45° ENE
NOSS 3-4 (C) 4.4 19:08:24 10° NNW 19:15:16 47° NE 19:16:14 45° ENE
Meteor 1-11 Rocket 4.1 19:10:10 10° N 19:15:16 63° NNE 19:15:16 63° NNE
Cosmos 1943 Rocket 4.0 19:29:41 21° NE 19:29:41 21° NE 19:31:35 10° NE
ATLAS 2AS CENTAUR R/B 3.8 19:22:03 10° NNW 19:28:31 33° NE 19:29:28 32° ENE
CZ-4C R/B 3.0 19:30:46 10° NW 19:38:27 73° WSW 19:38:37 73° SW
ATLAS 5 CENTAUR R/B 4.1 19:43:10 10° WNW 19:47:09 24° W 19:47:09 24° W
Cosmos 1833 Rocket 4.2 19:54:21 10° NW 19:57:45 28° WNW 19:57:45 28° WNW
Terra 4.1 20:06:40 18° WNW 20:06:40 18° WNW 20:08:30 10° NW
Cosmos 2082 Rocket 4.0 20:29:49 10° NW 20:32:17 23° WNW 20:32:17 23° WNW
Cosmos 2369 Rocket 3.6 21:06:18 34° N 21:06:18 34° N 21:09:38 10° NNE
Cosmos 1943 Rocket 4.0 21:11:10 24° NW 21:11:10 24° NW 21:14:51 10° N
USA 215 3.9 21:09:54 46° NE 21:10:27 47° NE 21:16:39 10° NNW
SeaSat 1 4.3 21:13:04 10° NNE 21:15:22 27° N 21:15:22 27° N
ATLAS 2AS CENTAUR R/B 3.9 21:12:53 10° NW 21:16:52 32° WNW 21:16:52 32° WNW
USA 281 4.2 21:45:13 36° E 21:46:18 39° ENE 21:52:17 10° N
CZ-2D R/B 3.9 21:48:05 10° NE 21:51:07 25° ENE 21:51:07 25° ENE
ATLAS CENTAUR R/B 4.5 21:58:46 11° N 21:58:46 11° N 21:58:55 10° N
ADEOS II 4.2 22:04:55 10° NE 22:07:47 17° E 22:07:47 17° E
Resurs 1-4 Rocket 3.3 22:08:43 10° NNE 22:12:14 36° NE 22:12:14 36° NE
Cosmos 1605 Rocket 4.4 22:07:31 10° N 22:12:36 61° N 22:12:36 61° N
Lacrosse 5 3.3 22:19:34 35° NE 22:19:34 35° NE 22:22:29 10° NE
Cosmos 2100 Rocket 4.3 22:43:35 10° N 22:49:49 62° E 22:50:37 57° ESE
SL-16 R/B 2.4 22:55:33 83° SE 22:55:46 87° ENE 23:02:05 10° NNW
COSMOS 2455 4.0 22:51:30 10° NNW 22:57:09 40° ENE 23:02:45 10° SE
Cosmos 1455 Rocket 4.4 22:59:08 10° NNE 23:02:53 36° ENE 23:02:53 36° ENE
ADEOS Rocket 4.3 23:03:00 13° SE 23:09:16 48° ENE 23:16:34 10° N
Tianhe-1 4.4 23:11:58 12° ENE 23:11:58 12° ENE 23:12:13 10° ENE
Cosmos 1626 4.2 23:10:17 23° ENE 23:10:17 23° ENE 23:12:39 10° NE
Cosmos 1000 Rocket 4.4 23:12:08 73° WSW 23:12:23 75° W 23:18:41 10° N
BREEZE-M DEB (TANK) 3.0 23:16:36 66° WNW 23:16:57 69° NNW 23:27:57 10° NE
Cosmos 1697 Rocket 3.2 23:16:33 45° SE 23:17:17 48° ESE 23:22:40 10° NNE
NPP 4.1 23:15:57 10° N 23:20:48 49° WNW 23:20:48 49° WNW
Meteor 1-28 Rocket 4.2 23:28:21 43° ENE 23:28:21 43° ENE 23:31:33 10° N
Cosmos 1980 Rocket 3.7 23:25:47 22° SE 23:28:01 29° ESE 23:32:51 10° NE
Helios 1B rocket 4.4 23:26:17 10° NNW 23:28:15 21° NW 23:28:15 21° NW
Cosmos 1975 Rocket 3.8 23:31:09 42° NNW 23:31:09 42° NNW 23:34:20 10° N
USA 281 4.0 23:32:04 33° W 23:32:04 33° W 23:36:40 10° NW
CZ-2D R/B 3.2 23:27:58 10° N 23:32:26 31° WNW 23:32:26 31° WNW
Cosmos 1315 Rocket 4.0 23:29:58 10° NNW 23:32:21 34° NNW 23:32:21 34° NNW
SL-14 R/B 4.4 23:35:46 36° ESE 23:36:06 36° E 23:39:43 10° NNE
IDEFIX/ARIANE 42P 2.9 23:32:04 10° NNE 23:37:18 62° E 23:38:42 45° SSE
Cosmos 2369 4.2 23:36:17 41° SSE 23:37:56 54° ESE 23:43:30 10° NNE
Cosmos 2227 Rocket 2.8 23:35:12 10° NNW 23:40:46 56° ENE 23:46:17 10° SE
Lacrosse 4 Rocket 2.1 23:43:05 47° SE 23:43:35 49° ESE 23:47:54 10° NE
Cosmos 2297 Rocket 2.2 23:38:35 10° NNW 23:44:16 81° ENE 23:48:34 18° SSE
Cosmos 2251 Rocket 3.3 23:40:55 10° NNW 23:46:11 84° WSW 23:47:40 48° S
Cosmos 1725 Rocket 3.9 23:41:53 10° N 23:48:10 86° W 23:51:04 34° S
BREEZE-M R/B 4.2 23:45:56 35° W 23:48:12 56° SW 23:58:45 10° SE
ADEOS II 2.3 23:43:11 10° N 23:48:14 49° WNW 23:48:43 48° W
Cosmos 304 Rocket 3.6 23:48:31 71° SW 23:49:02 84° WNW 23:53:51 10° NNE
IRS-1D 3.7 23:45:08 10° N 23:50:23 59° WNW 23:51:13 52° WSW
Resurs 1-4 Rocket 3.7 23:49:32 10° NNW 23:53:12 19° WNW 23:53:18 19° WNW
